COSMOS 1275 DEB, 42233

Orbit data source: Space-Track

COSMOS 1275 DEB, 42233 is space debris in LEO originally from a launch on Thu, 04 Jun 1981 UTC launched from the Plesetsk Missile And Space Complex (PKMTR). Debris objects in space refer to the collection of defunct objects orbiting the Earth. Examples of debris include non-operational satellites, rocket bodies, and fragments generated from explosions, collisions, or faulty payload assembly.

Loading next visibility...
Identifier
42233, 1981-053UZ
Orbit
LEO
Country
Flag of CISCIS
Related business
Manufacturer
Unknown
Mission
Spacecraft
Bus & Motor
Unknown
Mass
Unknown
Launch date (UTC)
1981-06-04 (45 years ago)
Launch vehicle
Unknown
Launch site
Plesetsk Missile And Space Complex (PKMTR)
Object type
Payload
Rocket body
Debris
Shape & HBR
Unknown shape, 0.1 m
Radar Cross Section
Small (<0.1 m²)

Expand to show TLE details & history
Last TLE update: 16 hours ago

TLE from 16 hours ago
0 COSMOS 1275 DEB
1 42233U 81053UZ  26034.13925009  .00000590  00000-0  64309-3 0  9994
2 42233  83.0377  92.3729 0136898 154.8557 205.9345 13.67049361561860
Epoch: 2026-02-03T03:20Z
TLE epoch observation values (Epoch: 2026-02-03T03:20:31.207Z)
Latitude
-0.00007°
Longitude
-91.08161°
Altitude
1,104.312 km
Speed
7.255 km/s
True Right ascension
06h 09m 29s
True Declination
0° 00' 00"
Sunlit
Object was in full shadow at epoch
Visualization orbit readout
Latitude
Unknown
Longitude
Unknown
Altitude
Unknown
Speed
Unknown
Apparent Right ascension
Unknown
Apparent Declination
Unknown
Sunlit
N/A
Visualization observer readout
Local Sidereal Time
20:53:44
Azimuth
Unknown
Elevation
Unknown
Doppler factor
Unknown
Orbital elements
Apogee altitude
1,108.444 km
Perigee altitude
906.233 km
Semi-major axis
7,385.476 km
Eccentricity
0.01369
Inclination
83.0377°
RAAN
92.3729°
Arg. of periapsis
154.8557°
True anomaly
205.25884°
Mean anomaly
205.9345°
Eccentric anomaly
205.59564°
Mean motion
3.4196 °/min
Orbital period
105.28 mins
BSTAR
0.00064309
Loading maneuver chart data...
Computing Atmospheric mass density...
Loading historical data...
Loading historical data...
Loading historical data...
Loading historical data...
Loading historical data...
Loading historical data...
Loading historical data...

Documentation

Showing up to 5 results
|